Location: Paul P. Feder Observatory
(46.8670°N, 96.4537°W)
Time: 13:08:31
(UTC-05:00)

BlueWalker 3 - Visible Passes

Search period start: 01 October 2023 00:00
Search period end: 11 October 2023 00:00
Orbit: 491 x 508 km, 53.2° (Epoch: 01 October)

Date Brightness Start Highest point End Pass type
(mag) Time Alt. Az. Time Alt. Az. Time Alt. Az.
01 Oct 4.0 04:32:38 27° ENE 04:32:38 27° ENE 04:34:45 10° E visible
01 Oct 2.0 06:07:17 21° WNW 06:09:42 60° SW 06:13:29 10° SE visible
02 Oct 4.9 04:12:25 15° E 04:12:25 15° E 04:13:08 10° E visible
02 Oct 1.9 05:47:04 42° W 05:48:05 59° SW 05:51:52 10° SE visible
03 Oct 2.2 05:27:01 52° S 05:27:01 52° S 05:30:14 10° SE visible
04 Oct 3.8 05:07:06 22° SE 05:07:06 22° SE 05:08:36 10° SE visible
04 Oct 4.1 06:42:00 10° WSW 06:42:33 10° SW 06:43:06 10° SW visible
07 Oct 4.6 21:00:02 10° SSW 21:00:02 10° SSW 21:00:02 10° SSW visible
08 Oct 3.6 20:38:20 10° SSW 20:40:03 21° S 20:40:03 21° S visible
09 Oct 2.9 20:16:36 10° SSW 20:19:51 27° SE 20:19:51 27° SE visible
09 Oct 5.0 21:54:18 10° WSW 21:54:30 11° WSW 21:54:30 11° WSW visible
10 Oct 2.9 19:54:50 10° SSW 19:58:05 27° SE 19:59:29 22° E visible
10 Oct 4.1 21:32:33 10° WSW 21:34:07 23° W 21:34:07 23° W visible
